Time,TemperatureF,DewpointF,PressureIn,WindDirection,WindDirectionDegrees,WindSpeedMPH,WindSpeedGustMPH,Humidity,HourlyPrecipIn,Conditions,Clouds,dailyrainin,SoftwareType,DateUTC
2013-10-01 00:10:00,56.0,55.0,29.96,SW,234,0.0,0.0,95,0.00,,,0.01,weatherlink.com 1.10,2013-10-01 04:10:00,
2013-10-01 00:25:00,55.9,55.0,29.96,SW,234,0.0,0.0,96,0.00,,,0.00,weatherlink.com 1.10,2013-10-01 04:25:00,
2013-10-01 00:40:00,56.0,55.0,29.96,SW,234,0.0,0.0,96,0.00,,,0.00,weatherlink.com 1.10,2013-10-01 04:40:00,
2013-10-01 01:10:00,56.7,56.0,29.96,SW,234,0.0,0.0,97,0.00,,,0.00,weatherlink.com 1.10,2013-10-01 05:10:00,
2013-10-01 01:25:00,57.1,56.0,29.96,SW,234,0.0,0.0,97,0.00,,,0.00,weatherlink.com 1.10,2013-10-01 05:25:00,
2013-10-01 01:40:00,57.5,57.0,29.96,WSW,237,0.0,0.0,97,0.00,,,0.00,weatherlink.com 1.10,2013-10-01 05:40:00,
2013-10-01 01:55:00,57.7,57.0,29.96,WSW,237,0.0,0.0,97,0.00,,,0.00,weatherlink.com 1.10,2013-10-01 05:55:00,
2013-10-01 02:10:00,57.8,57.0,29.96,WSW,237,0.0,0.0,97,0.00,,,0.00,weatherlink.com 1.10,2013-10-01 06:10:00,
2013-10-01 02:25:00,57.8,57.0,29.96,South,171,0.0,0.0,97,0.00,,,0.00,weatherlink.com 1.10,2013-10-01 06:25:00,
2013-10-01 02:40:00,57.9,57.0,29.96,South,171,0.0,0.0,97,0.00,,,0.00,weatherlink.com 1.10,2013-10-01 06:40:00,
2013-10-01 02:55:00,57.9,57.0,29.97,South,171,0.0,0.0,97,0.00,,,0.00,weatherlink.com 1.10,2013-10-01 06:55:00,
2013-10-01 03:10:00,58.0,57.0,29.96,South,171,0.0,0.0,97,0.00,,,0.00,weatherlink.com 1.10,2013-10-01 07:10:00,
2013-10-01 03:25:00,57.9,57.0,29.97,South,171,0.0,0.0,97,0.00,,,0.00,weatherlink.com 1.10,2013-10-01 07:25:00,
2013-10-01 03:55:00,58.1,57.0,29.97,South,171,0.0,0.0,97,0.00,,,0.00,weatherlink.com 1.10,2013-10-01 07:55:00,
2013-10-01 04:10:00,58.2,57.0,29.97,South,171,0.0,0.0,97,0.00,,,0.00,weatherlink.com 1.10,2013-10-01 08:10:00,
2013-10-01 04:25:00,58.2,57.0,29.97,South,171,0.0,0.0,97,0.00,,,0.00,weatherlink.com 1.10,2013-10-01 08:25:00,
2013-10-01 04:40:00,58.1,57.0,29.97,South,171,0.0,0.0,97,0.00,,,0.00,weatherlink.com 1.10,2013-10-01 08:40:00,
2013-10-01 04:55:00,58.2,58.0,29.98,South,171,0.0,0.0,98,0.00,,,0.00,weatherlink.com 1.10,2013-10-01 08:55:00,
2013-10-01 05:10:00,58.4,58.0,29.98,South,171,0.0,0.0,98,0.00,,,0.00,weatherlink.com 1.10,2013-10-01 09:10:00,
2013-10-01 05:25:00,58.8,58.0,29.98,SSW,205,0.0,1.0,98,0.00,,,0.00,weatherlink.com 1.10,2013-10-01 09:25:00,
2013-10-01 05:41:00,59.5,59.0,29.99,SSW,205,0.0,0.0,98,0.00,,,0.00,weatherlink.com 1.10,2013-10-01 09:41:00,
2013-10-01 05:56:00,59.8,59.0,29.98,SW,215,0.0,2.0,98,0.00,,,0.00,weatherlink.com 1.10,2013-10-01 09:56:00,
2013-10-01 06:11:00,59.9,59.0,29.98,NNW,329,0.0,1.0,98,0.00,,,0.00,weatherlink.com 1.10,2013-10-01 10:11:00,
2013-10-01 06:26:00,59.8,59.0,29.99,SSE,157,0.0,1.0,98,0.00,,,0.00,weatherlink.com 1.10,2013-10-01 10:26:00,
2013-10-01 06:41:00,59.6,59.0,29.99,South,190,0.0,1.0,98,0.00,,,0.00,weatherlink.com 1.10,2013-10-01 10:41:00,
2013-10-01 06:56:00,59.5,59.0,30.00,South,190,0.0,0.0,98,0.00,,,0.00,weatherlink.com 1.10,2013-10-01 10:56:00,
2013-10-01 07:11:00,59.5,59.0,30.00,SE,128,0.0,1.0,98,0.00,,,0.00,weatherlink.com 1.10,2013-10-01 11:11:00,
2013-10-01 07:26:00,59.6,59.0,30.00,South,174,0.0,1.0,98,0.00,,,0.00,weatherlink.com 1.10,2013-10-01 11:26:00,
2013-10-01 07:41:00,60.0,60.0,30.00,WSW,255,0.0,1.0,98,0.00,,,0.00,weatherlink.com 1.10,2013-10-01 11:41:00,
2013-10-01 07:56:00,60.3,60.0,30.00,NE,50,0.0,1.0,98,0.00,,,0.00,weatherlink.com 1.10,2013-10-01 11:56:00,
2013-10-01 08:11:00,60.4,60.0,30.01,West,267,0.0,1.0,98,0.00,,,0.00,weatherlink.com 1.10,2013-10-01 12:11:00,
2013-10-01 08:26:00,60.5,60.0,30.01,West,272,0.0,2.0,98,0.00,,,0.00,weatherlink.com 1.10,2013-10-01 12:26:00,
2013-10-01 08:41:00,60.6,60.0,30.01,NE,53,0.0,2.0,98,0.00,,,0.00,weatherlink.com 1.10,2013-10-01 12:41:00,
2013-10-01 08:56:00,60.8,60.0,30.01,WNW,290,0.0,3.0,98,0.00,,,0.00,weatherlink.com 1.10,2013-10-01 12:56:00,
2013-10-01 09:11:00,60.9,60.0,30.01,South,175,0.0,1.0,98,0.00,,,0.00,weatherlink.com 1.10,2013-10-01 13:11:00,
2013-10-01 09:26:00,61.0,61.0,30.01,North,11,0.0,2.0,98,0.00,,,0.00,weatherlink.com 1.10,2013-10-01 13:26:00,
2013-10-01 09:41:00,61.1,61.0,30.01,NW,305,0.0,4.0,98,0.00,,,0.00,weatherlink.com 1.10,2013-10-01 13:41:00,
2013-10-01 09:56:00,61.3,61.0,30.02,WNW,288,0.0,6.0,98,0.00,,,0.00,weatherlink.com 1.10,2013-10-01 13:56:00,
2013-10-01 10:11:00,61.5,61.0,30.02,WNW,290,0.0,1.0,98,0.00,,,0.00,weatherlink.com 1.10,2013-10-01 14:11:00,
2013-10-01 10:26:00,61.7,61.0,30.02,West,277,0.0,1.0,98,0.00,,,0.00,weatherlink.com 1.10,2013-10-01 14:26:00,
2013-10-01 10:41:00,61.8,61.0,30.02,SSW,208,0.0,2.0,98,0.00,,,0.00,weatherlink.com 1.10,2013-10-01 14:41:00,
2013-10-01 10:56:00,61.9,61.0,30.02,SSW,194,0.0,3.0,98,0.00,,,0.00,weatherlink.com 1.10,2013-10-01 14:56:00,
2013-10-01 11:11:00,62.0,62.0,30.02,NE,43,0.0,3.0,98,0.00,,,0.00,weatherlink.com 1.10,2013-10-01 15:11:00,
2013-10-01 11:26:00,62.3,62.0,30.02,NE,46,2.0,4.0,98,0.00,,,0.00,weatherlink.com 1.10,2013-10-01 15:26:00,
2013-10-01 11:41:00,62.5,62.0,30.02,West,275,0.0,6.0,98,0.00,,,0.00,weatherlink.com 1.10,2013-10-01 15:41:00,
2013-10-01 11:56:00,62.7,62.0,30.01,SW,217,0.0,4.0,98,0.00,,,0.00,weatherlink.com 1.10,2013-10-01 15:56:00,
2013-10-01 12:11:00,62.8,62.0,30.01,South,190,0.0,1.0,98,0.00,,,0.00,weatherlink.com 1.10,2013-10-01 16:11:00,
2013-10-01 12:26:00,63.0,62.0,30.01,South,186,0.0,3.0,97,0.00,,,0.00,weatherlink.com 1.10,2013-10-01 16:26:00,
2013-10-01 12:41:00,63.3,63.0,30.01,WSW,240,0.0,3.0,97,0.00,,,0.00,weatherlink.com 1.10,2013-10-01 16:41:00,
2013-10-01 12:56:00,63.6,63.0,30.01,West,271,0.0,4.0,96,0.01,,,0.01,weatherlink.com 1.10,2013-10-01 16:56:00,
2013-10-01 13:11:00,63.8,62.0,30.01,NW,315,3.0,3.0,95,0.01,,,0.01,weatherlink.com 1.10,2013-10-01 17:11:00,
2013-10-01 13:26:00,64.7,63.0,30.01,West,261,0.0,4.0,95,0.01,,,0.01,weatherlink.com 1.10,2013-10-01 17:26:00,
2013-10-01 13:41:00,65.1,63.0,30.00,West,269,0.0,3.0,93,0.01,,,0.01,weatherlink.com 1.10,2013-10-01 17:41:00,
2013-10-01 13:56:00,65.2,63.0,30.00,ESE,102,0.0,3.0,93,0.00,,,0.01,weatherlink.com 1.10,2013-10-01 17:56:00,
2013-10-01 14:11:00,65.7,63.0,30.00,SW,219,1.0,4.0,92,0.00,,,0.01,weatherlink.com 1.10,2013-10-01 18:11:00,
2013-10-01 14:26:00,66.1,64.0,30.00,SSW,204,0.0,3.0,91,0.00,,,0.01,weatherlink.com 1.10,2013-10-01 18:26:00,
2013-10-01 14:41:00,66.3,63.0,29.99,NE,49,0.0,3.0,89,0.00,,,0.01,weatherlink.com 1.10,2013-10-01 18:41:00,
2013-10-01 14:56:00,67.1,64.0,29.99,West,260,0.0,3.0,88,0.00,,,0.01,weatherlink.com 1.10,2013-10-01 18:56:00,
2013-10-01 15:11:00,66.9,63.0,29.99,NW,321,0.0,4.0,88,0.00,,,0.01,weatherlink.com 1.10,2013-10-01 19:11:00,
2013-10-01 15:26:00,67.0,63.0,29.99,NNW,338,2.0,2.0,87,0.00,,,0.01,weatherlink.com 1.10,2013-10-01 19:26:00,
2013-10-01 15:41:00,67.4,64.0,29.99,SSW,210,0.0,3.0,87,0.00,,,0.01,weatherlink.com 1.10,2013-10-01 19:41:00,
2013-10-01 15:56:00,67.8,64.0,29.98,WNW,294,1.0,5.0,86,0.00,,,0.01,weatherlink.com 1.10,2013-10-01 19:56:00,
2013-10-01 16:11:00,68.2,64.0,29.97,South,184,2.0,3.0,86,0.00,,,0.01,weatherlink.com 1.10,2013-10-01 20:11:00,
2013-10-01 16:26:00,69.6,65.0,29.97,West,275,0.0,4.0,84,0.00,,,0.01,weatherlink.com 1.10,2013-10-01 20:26:00,
2013-10-01 16:41:00,70.1,65.0,29.97,SW,232,0.0,2.0,83,0.00,,,0.01,weatherlink.com 1.10,2013-10-01 20:41:00,
2013-10-01 16:56:00,70.6,64.0,29.96,South,180,0.0,3.0,80,0.00,,,0.01,weatherlink.com 1.10,2013-10-01 20:56:00,
2013-10-01 17:12:00,70.5,64.0,29.96,WSW,251,0.0,4.0,81,0.00,,,0.01,weatherlink.com 1.10,2013-10-01 21:12:00,
2013-10-01 17:27:00,70.5,64.0,29.96,South,191,0.0,3.0,80,0.00,,,0.01,weatherlink.com 1.10,2013-10-01 21:27:00,
2013-10-01 17:42:00,70.6,64.0,29.96,SW,225,0.0,6.0,80,0.00,,,0.01,weatherlink.com 1.10,2013-10-01 21:42:00,
2013-10-01 17:57:00,70.0,64.0,29.96,WSW,246,2.0,5.0,80,0.00,,,0.01,weatherlink.com 1.10,2013-10-01 21:57:00,
2013-10-01 18:12:00,69.9,64.0,29.95,WSW,248,0.0,4.0,81,0.00,,,0.01,weatherlink.com 1.10,2013-10-01 22:12:00,
2013-10-01 18:27:00,69.7,64.0,29.96,East,101,1.0,4.0,81,0.00,,,0.01,weatherlink.com 1.10,2013-10-01 22:27:00,
2013-10-01 18:42:00,69.2,63.0,29.95,ESE,115,1.0,2.0,81,0.00,,,0.01,weatherlink.com 1.10,2013-10-01 22:42:00,
2013-10-01 18:57:00,68.6,63.0,29.96,SE,130,0.0,0.0,83,0.00,,,0.01,weatherlink.com 1.10,2013-10-01 22:57:00,
2013-10-01 19:12:00,67.8,63.0,29.95,WSW,252,0.0,3.0,85,0.00,,,0.01,weatherlink.com 1.10,2013-10-01 23:12:00,
2013-10-01 19:27:00,67.2,63.0,29.96,WSW,250,0.0,1.0,85,0.00,,,0.01,weatherlink.com 1.10,2013-10-01 23:27:00,
2013-10-01 19:42:00,66.7,62.0,29.96,WSW,250,0.0,0.0,86,0.00,,,0.01,weatherlink.com 1.10,2013-10-01 23:42:00,
2013-10-01 19:57:00,66.0,62.0,29.96,WSW,250,0.0,0.0,87,0.00,,,0.01,weatherlink.com 1.10,2013-10-01 23:57:00,
2013-10-01 20:12:00,65.4,62.0,29.96,WSW,250,0.0,0.0,88,0.00,,,0.01,weatherlink.com 1.10,2013-10-02 00:12:00,
2013-10-01 20:27:00,65.0,61.0,29.96,WSW,250,0.0,0.0,88,0.00,,,0.01,weatherlink.com 1.10,2013-10-02 00:27:00,
2013-10-01 20:42:00,64.5,61.0,29.97,WSW,250,0.0,0.0,89,0.00,,,0.01,weatherlink.com 1.10,2013-10-02 00:42:00,
2013-10-01 20:57:00,63.9,61.0,29.96,WSW,250,0.0,0.0,90,0.00,,,0.01,weatherlink.com 1.10,2013-10-02 00:57:00,
2013-10-01 21:12:00,63.5,61.0,29.97,WSW,250,0.0,0.0,91,0.00,,,0.01,weatherlink.com 1.10,2013-10-02 01:12:00,
2013-10-01 21:27:00,63.3,61.0,29.97,WSW,250,0.0,0.0,92,0.00,,,0.01,weatherlink.com 1.10,2013-10-02 01:27:00,
2013-10-01 21:42:00,63.2,61.0,29.97,WSW,250,0.0,0.0,92,0.00,,,0.01,weatherlink.com 1.10,2013-10-02 01:42:00,
2013-10-01 21:57:00,63.2,61.0,29.97,WSW,250,0.0,0.0,92,0.00,,,0.01,weatherlink.com 1.10,2013-10-02 01:57:00,
2013-10-01 22:12:00,63.4,61.0,29.97,WSW,250,0.0,0.0,92,0.00,,,0.01,weatherlink.com 1.10,2013-10-02 02:12:00,
2013-10-01 22:27:00,63.4,61.0,29.97,WSW,250,0.0,0.0,92,0.00,,,0.01,weatherlink.com 1.10,2013-10-02 02:27:00,
2013-10-01 22:42:00,63.1,61.0,29.97,WSW,250,0.0,0.0,92,0.00,,,0.01,weatherlink.com 1.10,2013-10-02 02:42:00,
2013-10-01 22:57:00,63.0,61.0,29.98,WSW,250,0.0,0.0,93,0.00,,,0.01,weatherlink.com 1.10,2013-10-02 02:57:00,
2013-10-01 23:12:00,63.0,61.0,29.98,WSW,250,0.0,0.0,93,0.00,,,0.01,weatherlink.com 1.10,2013-10-02 03:12:00,
2013-10-01 23:27:00,63.0,61.0,29.98,WSW,250,0.0,0.0,93,0.00,,,0.01,weatherlink.com 1.10,2013-10-02 03:27:00,
2013-10-01 23:42:00,62.8,61.0,29.98,WSW,250,0.0,0.0,93,0.00,,,0.01,weatherlink.com 1.10,2013-10-02 03:42:00,
2013-10-01 23:57:00,62.9,61.0,29.98,WSW,250,0.0,0.0,93,0.00,,,0.01,weatherlink.com 1.10,2013-10-02 03:57:00,